• Em Portugal
  • Lista de países
  • Para 7 dias
  • Temperatura da água
  • Mapas de satélite
  • Mapa do tempo
  • Widgets de tempo
  • user-avatar
    Iniciar Sessão

    Previsão horária em Bolshie Stariki

    Hoje, 23 Julho, Segunda-feira

    Tempo Temperatura Precipitação Vento Pressão Humidade
    00:00 +20°C° 0,4 mm 1 m/s 748 mmHg 97%
    01:00 +20°C° 0,4 mm 1 m/s 748 mmHg 97%
    02:00 +20°C° 0,4 mm 1 m/s 748 mmHg 97%
    03:00 +20°C° 0,4 mm 1 m/s 748 mmHg 98%
    04:00 +20°C° 0,4 mm 1 m/s 748 mmHg 98%
    05:00 +20°C° 0,4 mm 1 m/s 748 mmHg 98%
    06:00 +21°C° 0,1 mm 1 m/s 748 mmHg 95%
    07:00 +22°C° 0,1 mm 1 m/s 748 mmHg 93%
    08:00 +23°C° 0,1 mm 1 m/s 749 mmHg 90%
    09:00 +24°C° 0,7 mm 2 m/s 749 mmHg 87%
    10:00 +25°C° 0,7 mm 2 m/s 748 mmHg 84%
    11:00 +26°C° 0,7 mm 2 m/s 748 mmHg 81%
    12:00 +26°C° 0,8 mm 2 m/s 748 mmHg 78%
    13:00 +27°C° 0,8 mm 2 m/s 748 mmHg 74%
    14:00 +27°C° 0,8 mm 2 m/s 748 mmHg 71%
    15:00 +27°C° 0,5 mm 2 m/s 748 mmHg 73%
    16:00 +27°C° 0,5 mm 2 m/s 748 mmHg 75%
    17:00 +27°C° 0,5 mm 2 m/s 748 mmHg 76%
    18:00 +25°C° 0,4 mm 2 m/s 748 mmHg 81%
    19:00 +24°C° 0,4 mm 1 m/s 748 mmHg 87%
    20:00 +22°C° 0,4 mm 1 m/s 749 mmHg 92%
    21:00 +21°C° 0 mm 1 m/s 749 mmHg 94%
    22:00 +21°C° 0 mm 1 m/s 749 mmHg 95%
    23:00 +19°C° 0 mm 2 m/s 749 mmHg 97%

    Amanhã, 24 Julho, Terça-feira

    Tempo Temperatura Precipitação Vento Pressão Humidade
    00:00 +19°C° 0 mm 1 m/s 749 mmHg 97%
    01:00 +19°C° 0 mm 1 m/s 749 mmHg 97%
    02:00 +18°C° 0 mm 1 m/s 749 mmHg 97%
    03:00 +18°C° 0 mm 1 m/s 750 mmHg 98%
    04:00 +18°C° 0 mm 1 m/s 750 mmHg 98%
    05:00 +18°C° 0 mm 1 m/s 750 mmHg 98%
    06:00 +18°C° 0 mm 2 m/s 750 mmHg 93%
    07:00 +20°C° 0 mm 2 m/s 750 mmHg 88%
    08:00 +21°C° 0 mm 2 m/s 750 mmHg 83%
    09:00 +23°C° 0,1 mm 2 m/s 750 mmHg 77%
    10:00 +24°C° 0,1 mm 2 m/s 750 mmHg 72%
    11:00 +26°C° 0,1 mm 2 m/s 750 mmHg 66%
    12:00 +26°C° 0,7 mm 2 m/s 750 mmHg 69%
    13:00 +26°C° 0,7 mm 2 m/s 750 mmHg 73%
    14:00 +26°C° 0,7 mm 3 m/s 750 mmHg 76%
    15:00 +26°C° 0,8 mm 2 m/s 750 mmHg 79%
    16:00 +25°C° 0,8 mm 2 m/s 750 mmHg 83%
    17:00 +25°C° 0,8 mm 2 m/s 750 mmHg 86%
    18:00 +24°C° 0,5 mm 2 m/s 750 mmHg 89%
    19:00 +23°C° 0,5 mm 2 m/s 750 mmHg 92%
    20:00 +21°C° 0,5 mm 2 m/s 750 mmHg 94%
    21:00 +20°C° 0 mm 2 m/s 750 mmHg 95%
    22:00 +19°C° 0 mm 2 m/s 751 mmHg 96%
    23:00 +19°C° 0 mm 2 m/s 751 mmHg 97%

    Depois de amanhã, 25 Julho, Quarta-feira

    Tempo Temperatura Precipitação Vento Pressão Humidade
    00:00 +20°C° 0 mm 1 m/s 751 mmHg 97%
    01:00 +19°C° 0 mm 1 m/s 751 mmHg 97%
    02:00 +19°C° 0 mm 1 m/s 751 mmHg 98%
    03:00 +19°C° 0 mm 1 m/s 751 mmHg 98%
    04:00 +19°C° 0 mm 1 m/s 751 mmHg 98%
    05:00 +19°C° 0 mm 1 m/s 751 mmHg 98%
    06:00 +20°C° 0 mm 1 m/s 752 mmHg 95%
    07:00 +21°C° 0 mm 2 m/s 752 mmHg 92%
    08:00 +23°C° 0 mm 2 m/s 752 mmHg 89%
    09:00 +24°C° 0 mm 2 m/s 752 mmHg 81%
    10:00 +26°C° 0 mm 2 m/s 752 mmHg 73%
    11:00 +28°C° 0 mm 2 m/s 752 mmHg 65%
    12:00 +28°C° 0 mm 2 m/s 751 mmHg 62%
    13:00 +29°C° 0 mm 2 m/s 751 mmHg 60%
    14:00 +30°C° 0 mm 2 m/s 751 mmHg 57%
    15:00 +29°C° 0,2 mm 2 m/s 751 mmHg 62%
    16:00 +29°C° 0,2 mm 2 m/s 751 mmHg 66%
    17:00 +29°C° 0,2 mm 2 m/s 751 mmHg 71%
    18:00 +27°C° 0,2 mm 2 m/s 751 mmHg 78%
    19:00 +26°C° 0,2 mm 2 m/s 752 mmHg 84%
    20:00 +24°C° 0,2 mm 1 m/s 752 mmHg 91%
    21:00 +23°C° 0 mm 2 m/s 752 mmHg 93%
    22:00 +21°C° 0 mm 2 m/s 752 mmHg 94%
    23:00 +20°C° 0 mm 2 m/s 753 mmHg 96%

    26 Julho, Quinta-feira

    Tempo Temperatura Precipitação Vento Pressão Humidade
    00:00 +20°C° 0 mm 2 m/s 753 mmHg 96%
    01:00 +19°C° 0 mm 2 m/s 753 mmHg 96%
    02:00 +18°C° 0 mm 2 m/s 753 mmHg 96%
    03:00 +18°C° 0 mm 2 m/s 753 mmHg 95%
    04:00 +18°C° 0 mm 2 m/s 753 mmHg 94%
    05:00 +17°C° 0 mm 2 m/s 753 mmHg 93%
    06:00 +19°C° 0,1 mm 2 m/s 753 mmHg 88%
    07:00 +20°C° 0,1 mm 2 m/s 753 mmHg 84%
    08:00 +21°C° 0,1 mm 2 m/s 753 mmHg 79%
    09:00 +24°C° 0 mm 3 m/s 753 mmHg 73%
    10:00 +26°C° 0 mm 3 m/s 753 mmHg 66%
    11:00 +27°C° 0 mm 3 m/s 753 mmHg 60%
    12:00 +28°C° 0 mm 3 m/s 753 mmHg 57%
    13:00 +29°C° 0 mm 3 m/s 753 mmHg 55%
    14:00 +31°C° 0 mm 3 m/s 753 mmHg 52%
    15:00 +30°C° 0,3 mm 3 m/s 753 mmHg 55%
    16:00 +30°C° 0,3 mm 3 m/s 753 mmHg 59%
    17:00 +30°C° 0,3 mm 2 m/s 752 mmHg 62%
    18:00 +28°C° 0,3 mm 2 m/s 753 mmHg 69%
    19:00 +26°C° 0,3 mm 2 m/s 753 mmHg 75%
    20:00 +24°C° 0,3 mm 2 m/s 753 mmHg 82%
    21:00 +23°C° 0 mm 2 m/s 753 mmHg 85%
    22:00 +23°C° 0 mm 2 m/s 753 mmHg 88%
    23:00 +21°C° 0 mm 2 m/s 753 mmHg 91%

    27 Julho, Sexta-feira

    Tempo Temperatura Precipitação Vento Pressão Humidade
    00:00 +20°C° 0 mm 2 m/s 753 mmHg 92%
    01:00 +20°C° 0 mm 2 m/s 753 mmHg 93%
    02:00 +19°C° 0 mm 2 m/s 753 mmHg 94%
    03:00 +19°C° 0 mm 2 m/s 754 mmHg 94%
    04:00 +19°C° 0 mm 2 m/s 754 mmHg 94%
    05:00 +19°C° 0 mm 2 m/s 754 mmHg 94%
    06:00 +21°C° 0 mm 2 m/s 754 mmHg 91%
    07:00 +23°C° 0 mm 2 m/s 754 mmHg 87%
    08:00 +24°C° 0 mm 2 m/s 755 mmHg 84%
    09:00 +26°C° 0 mm 3 m/s 755 mmHg 77%
    10:00 +27°C° 0 mm 3 m/s 755 mmHg 70%
    11:00 +29°C° 0 mm 3 m/s 755 mmHg 63%
    12:00 +30°C° 0,3 mm 3 m/s 754 mmHg 61%
    13:00 +30°C° 0,3 mm 3 m/s 754 mmHg 59%
    14:00 +31°C° 0,3 mm 3 m/s 754 mmHg 57%
    15:00 +31°C° 0,2 mm 3 m/s 754 mmHg 58%
    16:00 +31°C° 0,2 mm 3 m/s 754 mmHg 60%
    17:00 +30°C° 0,2 mm 2 m/s 754 mmHg 62%
    18:00 +28°C° 0,7 mm 2 m/s 755 mmHg 69%
    19:00 +26°C° 0,7 mm 2 m/s 755 mmHg 76%
    20:00 +24°C° 0,7 mm 2 m/s 755 mmHg 83%
    21:00 +24°C° 0 mm 2 m/s 755 mmHg 85%
    22:00 +23°C° 0 mm 2 m/s 755 mmHg 87%
    23:00 +21°C° 0 mm 2 m/s 756 mmHg 89%

    28 Julho, Sábado

    Tempo Temperatura Precipitação Vento Pressão Humidade
    00:00 +21°C° 0,2 mm 2 m/s 756 mmHg 90%
    01:00 +20°C° 0,2 mm 2 m/s 756 mmHg 91%
    02:00 +20°C° 0,2 mm 2 m/s 756 mmHg 92%
    03:00 +20°C° 0 mm 2 m/s 756 mmHg 91%
    04:00 +19°C° 0 mm 2 m/s 756 mmHg 91%
    05:00 +19°C° 0 mm 2 m/s 756 mmHg 91%
    06:00 +21°C° 0 mm 2 m/s 756 mmHg 85%
    07:00 +24°C° 0 mm 2 m/s 757 mmHg 79%
    08:00 +26°C° 0 mm 2 m/s 757 mmHg 73%
    09:00 +28°C° 0 mm 3 m/s 757 mmHg 65%
    10:00 +29°C° 0 mm 3 m/s 757 mmHg 57%
    11:00 +31°C° 0 mm 3 m/s 757 mmHg 49%
    12:00 +33°C° 0 mm 3 m/s 757 mmHg 47%
    13:00 +33°C° 0 mm 3 m/s 756 mmHg 46%
    14:00 +33°C° 0 mm 3 m/s 756 mmHg 45%
    15:00 +33°C° 0 mm 3 m/s 756 mmHg 49%
    16:00 +32°C° 0 mm 2 m/s 756 mmHg 52%
    17:00 +31°C° 0 mm 2 m/s 756 mmHg 56%
    18:00 +29°C° 0 mm 2 m/s 756 mmHg 63%
    19:00 +28°C° 0 mm 2 m/s 756 mmHg 70%
    20:00 +26°C° 0 mm 2 m/s 757 mmHg 76%
    21:00 +25°C° 0 mm 1 m/s 757 mmHg 77%
    22:00 +24°C° 0 mm 1 m/s 757 mmHg 78%
    23:00 +23°C° 0 mm 1 m/s 757 mmHg 79%
    Mostrar mais